Wind_Speed
23 24 24 24 25 25 25 25 24 25 25 25 25 25 24 25 25 26 26 25 26 25 25 25 24 24 24 24 25 24 24 23 23 22 22 22 22 22 22 23 23 24 24
24 24 25 25 25 25 25 25 25 25 26 26 26 26 26 26 26 27 26 26 26 26 26 25 26 25 24 24 24 25 25 25 24 24 23 23 23 23 23 23 24 25 25
25 25 25 26 26 25 25 25 25 25 26 26 27 27 27 27 27 27 27 26 25 25 26 26 26 26 26 26 25 26 26 25 25 25 25 25 25 25 24 24 25 25 26
25 26 26 26 26 26 26 26 27 27 27 27 27 27 27 28 27 27 26 26 26 26 26 27 27 26 26 26 27 26 27 26 26 25 25 26 26 26 25 25 25 25 26
26 26 27 27 27 27 27 26 27 27 27 27 28 28 27 27 27 27 27 27 27 28 28 28 28 27 26 26 26 27 27 27 26 26 26 26 27 27 26 26 26 26 26
27 27 28 27 27 27 28 27 28 28 28 28 28 28 27 27 27 27 27 27 27 27 28 28 28 29 28 28 29 28 28 29 28 28 28 28 28 28 27 27 26 25 26
27 28 28 28 28 28 27 28 28 28 28 29 28 28 27 28 27 26 26 27 27 27 28 28 28 28 28 28 29 29 29 29 29 29 29 29 29 28 28 27 27 26 26
28 27 28 27 27 27 27 27 27 27 28 28 28 27 27 27 27 26 25 25 25 26 27 28 28 27 27 28 28 28 28 29 29 29 29 29 29 29 28 28 27 27 28
28 28 27 26 26 26 26 26 26 25 26 26 27 26 26 26 26 26 25 25 25 24 25 26 27 26 26 26 28 28 27 27 28 28 28 28 28 29 29 28 28 27 27
28 28 27 26 25 26 26 26 25 25 25 25 25 25 26 25 23 23 24 24 24 24 24 25 26 26 26 27 28 28 27 27 27 27 27 27 28 28 28 29 29 28 28
27 27 26 26 26 26 26 25 26 25 25 24 24 24 24 24 23 22 22 23 23 23 24 24 25 25 25 26 26 27 27 28 28 27 27 28 27 27 27 28 28 28 28
26 26 26 25 25 25 26 25 25 24 24 24 23 23 23 23 23 22 21 22 23 23 24 24 24 24 25 25 25 26 26 26 27 27 28 29 28 27 27 27 27 28 28
26 25 25 24 24 25 25 24 23 23 23 23 23 23 23 23 23 23 22 23 23 23 24 23 23 23 24 24 25 26 26 25 26 27 27 28 27 28 28 28 28 28 28
24 23 23 23 24 24 23 23 22 21 22 23 23 23 23 23 23 23 23 24 23 24 25 24 23 23 23 24 24 25 26 27 26 26 27 28 28 27 28 28 28 28 29
23 23 23 23 22 22 22 22 21 20 21 21 22 22 22 22 22 23 24 25 24 24 25 25 24 24 24 25 24 24 25 26 27 27 27 28 29 29 29 29 29 29 29
23 22 22 22 21 21 20 20 20 19 19 20 20 21 21 22 23 23 23 24 24 24 24 24 24 24 24 24 25 25 25 25 26 27 27 28 28 29 29 29 29 29 30
22 22 21 21 20 20 20 19 19 19 19 19 20 20 21 22 23 23 23 23 23 24 24 24 24 24 23 23 24 25 25 25 25 26 27 27 28 28 29 29 30 30 30
21 21 21 20 20 19 19 19 18 18 18 19 20 20 21 21 22 22 23 23 22 23 23 23 24 24 23 24 24 24 24 24 25 25 26 26 26 27 28 28 29 29 30
21 21 20 20 20 19 19 18 18 18 18 19 20 20 20 21 21 21 21 21 21 21 22 22 23 23 23 23 24 24 24 23 23 24 25 25 25 26 27 28 28 29 29
20 20 19 19 19 18 18 18 18 19 19 19 18 17 18 18 18 18 19 19 20 20 21 21 21 22 23 22 22 23 23 22 22 23 23 24 24 25 26 27 28 28 29
18 18 18 17 17 17 17 17 17 18 17 17 17 17 17 16 16 17 17 17 17 18 18 19 19 20 20 20 21 21 22 22 22 22 22 23 24 24 24 25 27 27 27
16 16 16 16 16 16 16 16 16 16 16 16 16 15 16 15 15 15 15 15 15 16 16 17 17 17 17 18 19 20 21 21 21 21 22 22 22 23 23 24 25 25 25
15 15 15 15 15 15 15 15 15 15 15 15 15 14 14 14 14 13 13 13 14 15 15 15 15 16 16 17 18 19 20 20 20 21 21 21 22 23 23 23 24 25 24
15 15 16 15 15 15 15 15 14 14 14 14 13 12 12 12 12 12 12 12 13 13 13 14 15 16 16 16 17 18 19 19 20 20 20 20 21 22 22 23 23 24 24
14 15 15 15 15 15 15 15 14 13 13 13 12 12 12 12 12 12 11 11 12 12 12 13 13 14 15 16 17 17 18 18 18 18 19 19 20 20 21 22 22 23 23
14 15 15 15 15 15 15 15 15 14 14 13 13 13 12 12 12 12 12 12 11 12 12 13 14 14 15 15 15 16 17 17 17 18 18 19 19 20 20 21 22 22 23
Wind_Direction
292 290 290 289 286 283 280 279 279 279 275 272 271 272 271 270 269 265 263 260 257 256 256 258 257 256 255 256 255 254 254 254 255 255 254 253 253 254 254 254 252 250 248
294 292 291 290 287 284 283 281 280 277 274 271 271 271 271 270 269 266 262 261 260 257 257 257 256 256 257 257 256 254 253 255 255 254 253 253 254 254 255 254 251 250 249
295 295 293 293 289 286 286 285 282 277 273 272 271 270 270 270 269 266 263 261 261 260 258 257 257 258 258 257 257 256 255 255 254 253 253 253 254 254 254 253 251 249 249
295 295 294 293 290 288 287 284 281 278 273 272 271 271 271 271 269 265 262 261 261 262 260 257 257 259 259 259 258 257 256 256 254 253 253 254 253 253 253 252 251 250 249
295 295 294 291 290 288 287 284 280 278 274 272 272 271 271 271 269 267 265 262 262 261 259 256 257 257 257 258 257 256 257 256 255 252 253 253 253 252 252 252 253 251 249
297 296 295 292 289 287 286 283 281 279 275 272 272 272 271 270 269 268 265 263 262 261 258 255 255 257 257 257 256 256 257 257 255 253 251 251 251 251 251 251 252 251 250
298 296 296 292 289 286 285 283 281 279 275 273 272 272 270 271 269 268 265 261 259 258 256 254 254 255 256 257 256 255 255 255 255 253 252 251 250 249 249 249 249 249 250
299 297 296 293 288 285 285 284 281 278 275 274 272 270 270 271 270 266 264 260 258 255 253 253 252 254 256 257 256 253 253 252 253 252 251 251 248 247 247 249 249 249 251
299 297 297 295 291 290 287 284 281 278 275 274 272 269 269 268 267 264 261 260 258 256 253 252 253 254 254 254 253 252 252 251 251 251 251 250 249 247 246 247 248 249 251
297 296 294 293 292 291 289 284 283 281 276 272 272 270 270 270 267 264 262 262 261 257 256 254 254 255 253 254 253 251 251 249 249 250 250 250 249 247 248 248 248 249 249
298 297 295 294 291 288 286 285 284 282 277 272 271 270 271 270 268 264 262 263 262 260 259 257 257 255 254 254 254 252 251 250 249 251 251 249 249 250 248 248 247 247 247
300 297 295 294 291 290 288 286 284 283 277 274 272 270 271 271 268 266 265 262 262 262 260 262 260 257 256 254 252 252 250 248 249 250 251 248 247 248 248 247 246 244 245
303 298 297 294 293 292 290 288 288 284 280 277 273 271 270 270 269 268 266 263 261 262 260 262 260 258 256 254 252 251 250 249 249 250 251 249 248 248 246 245 244 245 245
309 305 302 299 297 294 291 290 289 286 281 278 275 273 272 270 271 269 266 264 262 262 261 261 260 258 256 255 252 250 250 249 248 250 250 249 248 248 247 246 246 246 245
310 309 308 306 301 298 293 290 288 287 284 280 277 276 275 273 272 270 268 265 264 262 261 261 260 258 255 254 253 253 252 249 250 250 250 249 248 248 246 246 246 245 244
310 310 310 309 305 301 297 292 289 288 286 283 281 278 277 274 273 272 270 267 265 263 261 260 260 261 258 255 254 252 250 249 250 250 249 249 248 248 245 246 247 245 244
308 308 308 308 305 302 300 297 293 290 289 287 284 282 280 278 274 271 270 269 267 264 262 259 258 259 260 258 257 254 251 251 251 250 249 250 249 247 247 246 245 245 245
309 309 309 308 306 304 302 301 297 293 292 289 288 284 281 278 274 271 269 267 266 263 261 259 258 258 260 260 260 256 254 252 250 250 251 250 248 248 247 245 245 245 246
311 311 310 309 308 306 304 301 300 299 297 295 292 287 281 279 276 272 269 266 265 264 262 259 257 257 258 258 256 254 251 249 249 249 250 247 247 247 247 246 245 245 246
312 313 312 311 312 311 309 306 305 304 302 301 297 293 289 284 279 276 272 269 267 264 262 258 256 255 256 255 255 251 248 247 248 249 249 249 249 249 248 246 246 246 246
316 317 317 316 316 315 314 311 310 309 306 304 301 298 294 289 283 278 274 270 268 265 261 258 257 257 255 252 250 249 249 249 249 250 250 251 251 250 250 247 246 247 248
325 326 327 326 323 321 319 317 316 314 312 308 305 302 298 295 289 282 277 272 269 265 261 259 259 256 253 251 251 251 251 252 251 250 248 248 249 249 250 248 246 246 248
332 333 333 331 330 329 327 325 322 319 316 314 310 304 299 298 295 286 279 273 269 266 262 259 254 253 253 252 251 251 252 254 254 251 247 246 248 249 247 248 248 248 250
333 333 334 334 334 334 332 328 325 323 321 318 315 314 309 304 299 294 286 278 274 268 261 255 252 253 253 252 251 252 253 255 254 251 247 247 248 249 250 250 250 251 252
331 335 338 337 337 337 337 334 331 328 325 320 318 316 313 307 301 297 290 282 277 271 263 257 255 253 249 250 250 250 250 253 252 250 249 248 249 250 252 251 251 253 254
332 334 336 338 341 341 338 335 333 330 327 323 318 317 317 315 310 303 295 289 279 272 266 259 256 256 253 252 253 254 252 251 251 250 251 250 250 251 252 252 253 255 257
Height
5854 5852 5849 5847 5846 5844 5843 5841 5839 5838 5836 5835 5835 5834 5833 5832 5831 5831 5831 5831 5831 5832 5832 5833 5833 5834 5835 5836 5836 5837 5838 5838 5839 5840 5841 5841 5842 5843 5843 5844 5845 5846 5847
5848 5846 5844 5842 5840 5838 5836 5834 5833 5831 5830 5829 5828 5828 5827 5826 5825 5825 5825 5825 5825 5825 5826 5826 5827 5828 5829 5830 5830 5831 5832 5833 5833 5834 5835 5836 5837 5837 5838 5839 5839 5840 5842
5842 5840 5838 5836 5834 5832 5830 5828 5826 5824 5823 5822 5822 5821 5820 5819 5818 5818 5818 5818 5818 5819 5820 5820 5821 5822 5823 5824 5824 5825 5826 5826 5827 5828 5829 5830 5831 5832 5832 5833 5834 5835 5836
5836 5834 5831 5829 5827 5825 5823 5821 5819 5817 5816 5815 5814 5813 5812 5812 5811 5811 5811 5811 5812 5813 5813 5814 5815 5815 5816 5817 5818 5819 5819 5820 5821 5822 5823 5824 5825 5826 5826 5827 5828 5829 5830
5829 5827 5824 5822 5820 5817 5816 5814 5812 5810 5809 5808 5806 5805 5805 5804 5804 5804 5804 5805 5805 5806 5806 5808 5808 5809 5810 5810 5811 5812 5813 5813 5814 5815 5817 5818 5819 5819 5820 5821 5822 5823 5824
5823 5820 5817 5815 5812 5810 5808 5806 5804 5803 5801 5800 5799 5798 5797 5797 5796 5796 5797 5797 5798 5798 5799 5800 5800 5801 5803 5803 5804 5805 5806 5807 5807 5808 5809 5811 5812 5813 5814 5815 5816 5817 5818
5816 5813 5810 5807 5805 5802 5800 5798 5796 5794 5793 5792 5791 5790 5790 5789 5789 5789 5789 5789 5790 5790 5791 5792 5793 5794 5795 5796 5797 5798 5798 5799 5800 5801 5802 5804 5805 5806 5807 5808 5809 5810 5811
5809 5806 5803 5800 5797 5795 5793 5790 5788 5786 5785 5784 5784 5783 5783 5783 5782 5781 5781 5782 5782 5783 5784 5785 5786 5787 5787 5788 5789 5790 5791 5791 5792 5794 5795 5796 5797 5799 5800 5801 5803 5804 5805
5802 5799 5796 5793 5790 5788 5785 5783 5781 5779 5778 5777 5776 5776 5775 5775 5775 5774 5774 5774 5774 5775 5776 5777 5778 5779 5780 5780 5781 5782 5783 5784 5785 5786 5787 5788 5790 5791 5793 5794 5796 5797 5798
5796 5792 5789 5787 5784 5781 5778 5776 5774 5772 5771 5770 5769 5768 5768 5767 5767 5768 5767 5767 5767 5768 5769 5770 5771 5771 5772 5773 5773 5774 5776 5777 5778 5779 5780 5781 5783 5784 5785 5787 5788 5790 5791
5788 5785 5782 5779 5776 5773 5771 5769 5767 5765 5763 5763 5762 5761 5761 5760 5760 5761 5761 5761 5761 5761 5761 5762 5763 5764 5764 5765 5766 5767 5768 5769 5771 5772 5773 5774 5776 5777 5778 5779 5781 5782 5784
5782 5778 5775 5772 5769 5766 5764 5762 5760 5758 5756 5755 5755 5754 5754 5754 5754 5754 5754 5754 5754 5754 5754 5755 5755 5756 5757 5757 5758 5759 5760 5762 5763 5765 5766 5767 5769 5770 5771 5772 5774 5775 5777
5775 5771 5768 5765 5762 5759 5757 5755 5753 5751 5749 5749 5748 5748 5747 5747 5747 5747 5747 5747 5748 5748 5748 5748 5749 5749 5749 5750 5751 5752 5753 5754 5756 5757 5758 5760 5761 5763 5764 5765 5767 5768 5770
5769 5765 5762 5759 5756 5753 5750 5748 5746 5744 5743 5742 5741 5741 5740 5740 5740 5740 5740 5740 5741 5741 5741 5742 5742 5742 5742 5743 5743 5744 5746 5747 5748 5750 5751 5752 5754 5755 5757 5758 5759 5761 5762
5764 5760 5757 5753 5749 5747 5744 5742 5740 5738 5737 5736 5735 5734 5734 5733 5733 5733 5733 5733 5734 5734 5734 5735 5735 5735 5736 5736 5736 5737 5738 5739 5741 5742 5743 5745 5746 5747 5749 5750 5752 5753 5755
5759 5755 5751 5747 5744 5741 5738 5736 5734 5732 5731 5730 5729 5728 5727 5727 5726 5726 5726 5726 5726 5726 5727 5727 5727 5728 5728 5728 5729 5730 5731 5732 5733 5734 5736 5737 5738 5739 5741 5743 5744 5746 5748
5754 5750 5746 5743 5739 5736 5733 5731 5729 5727 5725 5724 5723 5722 5721 5720 5719 5719 5719 5718 5718 5718 5719 5719 5720 5721 5721 5722 5722 5723 5723 5725 5726 5727 5728 5729 5730 5732 5733 5735 5737 5738 5740
5749 5745 5741 5738 5735 5732 5729 5726 5724 5722 5720 5718 5717 5715 5714 5713 5712 5712 5712 5711 5711 5711 5712 5712 5713 5714 5714 5715 5715 5715 5716 5717 5718 5719 5720 5721 5723 5724 5726 5727 5729 5731 5732
5744 5740 5737 5733 5730 5727 5724 5722 5719 5717 5715 5713 5711 5709 5708 5707 5706 5705 5705 5705 5705 5704 5705 5705 5706 5707 5707 5708 5708 5709 5709 5710 5711 5712 5713 5714 5716 5717 5719 5720 5722 5723 5725
5739 5736 5733 5729 5726 5723 5720 5718 5715 5713 5710 5708 5706 5704 5702 5701 5700 5699 5699 5698 5698 5698 5698 5699 5699 5700 5701 5701 5701 5702 5703 5704 5705 5706 5707 5708 5709 5711 5712 5713 5715 5716 5717
5735 5732 5729 5726 5723 5720 5717 5714 5711 5709 5706 5704 5701 5699 5697 5696 5694 5693 5693 5692 5692 5692 5692 5692 5693 5693 5694 5695 5696 5696 5697 5698 5699 5700 5701 5702 5703 5704 5705 5706 5708 5709 5710
5732 5729 5726 5723 5719 5716 5713 5711 5708 5705 5703 5700 5698 5695 5693 5691 5690 5689 5688 5687 5687 5687 5687 5687 5687 5688 5689 5690 5690 5691 5691 5692 5693 5694 5695 5696 5697 5698 5699 5700 5701 5702 5703
5730 5727 5723 5720 5717 5713 5710 5708 5705 5702 5699 5696 5694 5692 5689 5688 5686 5684 5683 5683 5682 5682 5682 5682 5683 5683 5684 5685 5686 5686 5686 5687 5687 5688 5689 5690 5691 5692 5693 5694 5695 5695 5696
5728 5725 5721 5718 5714 5711 5708 5705 5702 5699 5696 5693 5691 5688 5686 5684 5682 5681 5680 5679 5678 5678 5677 5677 5678 5679 5679 5680 5680 5681 5681 5682 5682 5683 5683 5684 5685 5686 5687 5688 5688 5689 5690
5726 5722 5719 5716 5713 5709 5706 5703 5700 5697 5694 5691 5688 5686 5683 5681 5679 5678 5676 5675 5674 5674 5673 5673 5674 5674 5674 5675 5676 5676 5677 5677 5677 5677 5678 5679 5680 5680 5681 5682 5682 5683 5683
5724 5721 5718 5715 5711 5708 5704 5701 5697 5694 5691 5689 5686 5683 5681 5679 5676 5675 5673 5672 5671 5670 5670 5670 5670 5670 5670 5671 5671 5672 5672 5672 5672 5673 5673 5674 5675 5675 5676 5676 5677 5677 5677